[[{"header":{"parameterUnit":"m.s-1","parameterCategory":1,"la1":30.2991,"la2":30.254,"lo1":-89.0895,"lo2":-89.0444,"dy":0.0017,"dx":0.0017,"nx":28,"ny":28,"refTime":"2025-12-14T03:00:00:Z","depth":0,"parameterNumber":2,"parameterNumberName":"U-component_of_WINDS"},"data":[0,0,0,0,0,0,0,0,0,0,0,0,0,0,0,0,0,0,0,0,0,0,0,0,0,0,0,0,0,0,0,0,0,0,0,0,0,0,0,0,0,0,0,0,0,0,0,0,0,0,0,0,0,0,0,0,0,0,-1.9885,-1.9886,0,-1.9947,-1.9947,-1.9948,-1.9912,-1.9911,-1.9909,-1.9907,-1.9971,-1.9974,-1.9978,0,0,0,0,0,0,0,0,0,0,0,0,0,-1.9737,-1.974,-1.9885,-1.9886,-1.9887,-1.9947,-1.9948,-1.9948,-1.9913,-1.9911,-1.9908,-1.9907,-1.997,-1.9974,-1.9978,0,0,0,0,0,0,0,0,0,0,0,0,0,-1.98,-1.9741,-1.9885,-1.9876,-1.9876,-1.9946,-1.9948,-1.9949,-1.9913,-1.9911,-1.9908,-1.9906,-1.9969,-1.9974,-1.9978,-2.0061,0,0,-1.9994,-1.9996,0,0,0,0,0,0,0,0,-1.9797,-1.9806,-1.9877,-1.9877,-1.9877,-1.9919,-1.9919,-1.9986,-1.9914,-1.9899,-1.9907,-1.9904,-1.9956,-1.9962,-1.9979,-2.0064,-2.0067,-1.9994,-1.9997,-1.9999,-2.0001,0,0,0,0,0,0,0,-1.9792,-1.9803,-1.991,-1.9878,-1.9878,-1.9869,-1.9875,-1.9931,-1.9941,-1.99,-1.9898,-1.9905,-1.9956,-1.9974,-1.998,-2.0068,-1.9994,-1.9998,-2.0002,-2.0003,-2.0224,-2.0226,0,0,0,0,0,0,-1.9789,-1.9799,-1.9908,-1.9911,-1.9829,-1.9874,-1.9881,-1.9908,-1.9941,-1.9943,-1.9908,-1.9904,-1.9967,-1.9975,-1.9983,-2.0081,-1.9999,-2.0004,-2.0007,-2.0221,-2.0224,-2.0227,0,0,0,0,0,0,-1.9785,-1.9799,-1.9905,-1.9855,-1.9868,-1.9879,-1.991,-1.9911,-1.993,-1.9946,-1.9948,-1.9925,-1.9965,-1.9976,-2.0042,-2.0083,-2.0006,-2.0011,-2.0218,-2.0222,-2.0226,-2.028,0,0,0,0,0,0,-1.9781,-1.9798,-1.9829,-1.9856,-1.9871,-1.9964,-1.9913,-1.9914,-1.9938,-1.9934,-1.9963,-1.9966,-1.9964,-2.0035,-2.0047,-2.0088,-2.0015,-2.0214,-2.0219,-2.0225,-2.0274,-2.0285,-2.0295,0,0,0,0,0,-1.9776,-1.9842,-1.9831,-1.9844,-1.991,-1.9966,-1.9974,-1.9971,-1.9942,-1.9974,-1.9984,-1.9965,-2.0077,-2.0042,-2.0055,-2.0099,-2.0211,-2.0218,-2.0224,-2.027,-2.0283,-2.0294,0,0,0,0,0,0,-1.9821,-1.9846,-1.9834,-1.991,-1.9936,-1.996,-2.0,-1.9986,-2.0021,-2.0015,-2.001,-2.0017,-2.0086,-2.0099,-2.006,-2.018,-2.0139,-2.0149,-2.0169,-2.0182,-2.0192,-2.0188,-2.0019,0,0,0,0,0,-1.984,-1.9883,-1.9902,-1.9968,-1.9982,-1.9989,-2.0013,-2.0008,-2.0035,-2.0046,-2.0061,-2.0088,-2.0129,-2.0156,-2.0195,-2.0276,-2.0282,-2.0313,-2.0323,-2.0331,-2.0339,-2.0382,-2.0396,-2.0249,-2.0249,-2.0248,0,0,-1.9879,-1.9898,-1.9925,-1.9977,-1.9997,-2.0041,-1.9998,-2.0047,-2.008,-2.0053,-2.0117,-2.0129,-2.0159,-2.0232,-2.0266,-2.0245,-2.0381,-2.0339,-2.0346,-2.035,-2.039,-2.0404,-2.0417,-2.0253,-2.0252,-2.0251,0,0,-1.9973,-1.9992,-2.0049,-2.0069,-2.0099,-2.0103,-2.0117,-2.0142,-2.0149,-2.0213,-2.0193,-2.0232,-2.0303,-2.0325,-2.0346,-2.0447,-2.043,-2.046,-2.0513,-2.0555,-2.0567,-2.0577,-2.0613,-2.0626,-2.0468,-2.0468,-2.0468,0,-2.0019,-2.0085,-2.008,-2.013,-2.0153,-2.013,-2.0187,-2.0207,-2.0249,-2.0265,-2.0242,-2.033,-2.0349,-2.0427,-2.0451,-2.0469,-2.0484,-2.0457,-2.0566,-2.0576,-2.0585,-2.062,-2.0633,-2.0472,-2.0471,-2.0471,-2.0471,0,-2.0138,-2.0185,-2.0227,-2.0267,-2.0294,-2.0348,-2.0351,-2.038,-2.0372,-2.0379,-2.0444,-2.0465,-2.0507,-2.0525,-2.0519,-2.0603,-2.0589,-2.0566,-2.0524,-2.0603,-2.0635,-2.0648,-2.0477,-2.0475,-2.0474,-2.0473,0,0,-2.0263,-2.0299,-2.0314,-2.0332,-2.0363,-2.0398,-2.0451,-2.0492,-2.0516,-2.0546,-2.0589,-2.0649,-2.0628,-2.0651,-2.0647,-2.0684,-2.0762,-2.0656,-2.0657,-2.0675,-2.0855,-2.0872,-2.0887,-2.0751,-2.0754,-2.0756,-2.0852,0,-2.0359,-2.045,-2.0447,-2.0532,-2.0574,-2.0552,-2.0598,-2.0622,-2.0629,-2.0666,-2.0674,-2.0717,-2.0686,-2.0699,-2.0735,-2.0745,-2.0798,-2.0738,-2.0792,-2.0794,-2.0785,-2.0904,-2.0922,-2.1013,-2.0865,-2.0867,-2.0869,0,-2.0483,-2.0516,-2.0605,-2.0629,-2.0646,-2.0687,-2.0724,-2.076,-2.0786,-2.0789,-2.0815,-2.0804,-2.0857,-2.0814,-2.0887,-2.0846,-2.0867,-2.0876,-2.0879,-2.0884,-2.0836,-2.0912,-2.1042,-2.1055,-2.0888,-2.0887,-2.0885,0,-2.0565,-2.0631,-2.0692,-2.0708,-2.0738,-2.0767,-2.0781,-2.0804,-2.0829,-2.0861,-2.0877,-2.0916,-2.0937,-2.0966,-2.0966,-2.0935,-2.104,-2.0997,-2.1043,-2.1044,-2.1066,-2.1065,-2.1201,-2.1081,-2.1081,-2.108,-2.108,0,-2.0672,-2.0727,-2.0729,-2.0767,-2.0828,-2.0824,-2.0884,-2.0895,-2.0916,-2.0956,-2.094,-2.0977,-2.0975,-2.1013,-2.1014,-2.1074,-2.1083,-2.1087,-2.1086,-2.1088,-2.1088,-2.1102,-2.1096,-2.1084,-2.1083,-2.1083,-2.1082,0,-2.0773,-2.0777,-2.0843,-2.0865,-2.0872,-2.0916,-2.0935,-2.0971,-2.0976,-2.1027,-2.1038,-2.1047,-2.1091,-2.1094,-2.1145,-2.1145,-2.1218,-2.1211,-2.1209,-2.1207,-2.1253,-2.1249,-2.1404,-2.1424,-2.1291,-2.1292,-2.1293,0,-2.0842,-2.0883,-2.091,-2.0935,-2.095,-2.0991,-2.1016,-2.1013,-2.1039,-2.1072,-2.1104,-2.1146,-2.1179,-2.1251,-2.1262,-2.1301,-2.1294,-2.1345,-2.13,-2.13,-2.1294,-2.1292,-2.1296,-2.1354,-2.1356,-2.1357,-2.1358,0,-2.0962,-2.0961,-2.0998,-2.1034,-2.1064,-2.1093,-2.112,-2.1142,-2.1141,-2.1172,-2.1216,-2.1242,-2.1294,-2.1336,-2.1373,-2.1388,-2.1373,-2.1372,-2.1385,-2.1387,-2.1384,-2.1386,-2.1233,-2.1369,-2.1368,-2.1367,-2.1366,-2.1366,-2.1049,-2.1085,-2.1109,-2.1149,-2.1169,-2.1194,-2.1229,-2.1238,-2.1275,-2.1316,-2.1312,-2.1361,-2.1386,-2.1435,-2.1452,-2.149,-2.1473,-2.1492,-2.1496,-2.1501,-2.1505,-2.1378,-2.1497,-2.1497,-2.1497,-2.1497,-2.1496,0,-2.1168,-2.1182,-2.1219,-2.1257,-2.1289,-2.1272,-2.13,-2.1328,-2.1371,-2.1396,-2.1429,-2.1479,-2.152,-2.1534,-2.1573,-2.1601,-2.1595,-2.1612,-2.1609,-2.1613,-2.1519,-2.1504,-2.1615,-2.1615,-2.1615,-2.1615,-2.1615,-2.1615,-2.1234,-2.1293,-2.1296,-2.1365,-2.1378,-2.1426,-2.1443,-2.1467,-2.1486,-2.1543,-2.1576,-2.1585,-2.1605,-2.1645,-2.1682,-2.1685,-2.17,-2.1719,-2.1719,-2.1631,-2.1619,-2.1608,-2.1594,-2.1722,-2.1723,-2.181,-2.1811,-2.1811]},{"header":{"parameterUnit":"m.s-1","parameterCategory":1,"la1":30.2991,"la2":30.254,"lo1":-89.0895,"lo2":-89.0444,"dy":0.0017,"dx":0.0017,"nx":28,"ny":28,"refTime":"2025-12-14T03:00:00:Z","depth":0,"parameterNumber":3,"parameterNumberName":"V-component_of_WINDS"},"data":[0,0,0,0,0,0,0,0,0,0,0,0,0,0,0,0,0,0,0,0,0,0,0,0,0,0,0,0,0,0,0,0,0,0,0,0,0,0,0,0,0,0,0,0,0,0,0,0,0,0,0,0,0,0,0,0,0,0,-1.9157,-1.9157,0,-1.9217,-1.9218,-1.9218,-1.922,-1.922,-1.9219,-1.9218,-1.9278,-1.928,-1.9282,0,0,0,0,0,0,0,0,0,0,0,0,0,-1.9041,-1.9043,-1.9157,-1.9157,-1.9158,-1.9217,-1.9218,-1.9218,-1.9221,-1.922,-1.9219,-1.9218,-1.9277,-1.928,-1.9283,0,0,0,0,0,0,0,0,0,0,0,0,0,-1.9095,-1.9043,-1.9157,-1.9166,-1.9168,-1.9217,-1.9218,-1.9219,-1.9221,-1.922,-1.9219,-1.9218,-1.9276,-1.928,-1.9283,-1.9325,0,0,-1.9293,-1.9295,0,0,0,0,0,0,0,0,-1.9092,-1.9099,-1.9164,-1.9166,-1.9168,-1.921,-1.9199,-1.9254,-1.9221,-1.9201,-1.9218,-1.9217,-1.9256,-1.9261,-1.9275,-1.9328,-1.9331,-1.9294,-1.9296,-1.9297,-1.9298,0,0,0,0,0,0,0,-1.9088,-1.9096,-1.918,-1.9165,-1.9167,-1.9167,-1.9173,-1.9209,-1.9234,-1.9202,-1.9203,-1.921,-1.9257,-1.9271,-1.9276,-1.9332,-1.9294,-1.9297,-1.9299,-1.93,-1.9421,-1.9422,0,0,0,0,0,0,-1.9083,-1.9093,-1.9179,-1.9182,-1.9126,-1.917,-1.9177,-1.9198,-1.9233,-1.9238,-1.9211,-1.921,-1.9266,-1.9272,-1.9278,-1.9329,-1.9297,-1.93,-1.9302,-1.942,-1.9421,-1.9422,0,0,0,0,0,0,-1.908,-1.909,-1.9176,-1.9138,-1.9149,-1.9173,-1.9196,-1.9199,-1.9214,-1.924,-1.9244,-1.9221,-1.9266,-1.9273,-1.9313,-1.9331,-1.9302,-1.9305,-1.9418,-1.942,-1.9422,-1.9432,0,0,0,0,0,0,-1.9077,-1.9089,-1.9107,-1.9138,-1.9151,-1.9211,-1.9197,-1.9201,-1.922,-1.9219,-1.9251,-1.9255,-1.9265,-1.9308,-1.9317,-1.9335,-1.9307,-1.9417,-1.9419,-1.9421,-1.943,-1.9434,-1.9437,0,0,0,0,0,-1.9073,-1.9107,-1.9107,-1.9118,-1.9173,-1.9212,-1.9219,-1.9231,-1.9221,-1.9238,-1.9254,-1.9254,-1.9328,-1.9312,-1.9322,-1.9342,-1.9416,-1.9418,-1.9421,-1.9429,-1.9433,-1.9437,0,0,0,0,0,0,-1.9076,-1.9111,-1.9112,-1.9158,-1.9182,-1.9213,-1.9235,-1.9236,-1.9263,-1.9261,-1.9274,-1.9281,-1.9321,-1.9335,-1.9317,-1.9384,-1.937,-1.9375,-1.9373,-1.9377,-1.9381,-1.9376,-1.931,0,0,0,0,0,-1.9083,-1.9113,-1.9141,-1.9179,-1.9191,-1.921,-1.9228,-1.9235,-1.926,-1.927,-1.929,-1.9313,-1.9342,-1.9361,-1.9388,-1.9432,-1.9438,-1.945,-1.9454,-1.9456,-1.946,-1.9483,-1.9488,-1.9431,-1.9431,-1.9431,0,0,-1.9096,-1.9119,-1.9137,-1.918,-1.92,-1.9229,-1.9219,-1.9251,-1.9273,-1.9275,-1.9314,-1.9329,-1.9356,-1.9398,-1.9417,-1.9411,-1.9477,-1.946,-1.9462,-1.9464,-1.9486,-1.9492,-1.9496,-1.9433,-1.9433,-1.9432,0,0,-1.9135,-1.9155,-1.9188,-1.9208,-1.9238,-1.925,-1.9258,-1.9288,-1.9298,-1.9337,-1.9339,-1.9364,-1.9414,-1.9433,-1.9449,-1.9493,-1.9493,-1.9501,-1.9519,-1.9541,-1.9546,-1.955,-1.9565,-1.957,-1.9505,-1.9505,-1.9505,0,-1.9147,-1.9193,-1.9205,-1.9237,-1.9255,-1.9259,-1.9291,-1.9309,-1.9346,-1.9358,-1.9351,-1.9412,-1.9431,-1.9476,-1.9487,-1.95,-1.9508,-1.9498,-1.9544,-1.9549,-1.9553,-1.9567,-1.9572,-1.9506,-1.9506,-1.9506,-1.9506,0,-1.9206,-1.9237,-1.926,-1.9296,-1.9316,-1.9348,-1.9364,-1.9384,-1.9389,-1.9401,-1.944,-1.9463,-1.9494,-1.9506,-1.9511,-1.9551,-1.9547,-1.9542,-1.9529,-1.9559,-1.9572,-1.9578,-1.9507,-1.9507,-1.9507,-1.9506,0,0,-1.925,-1.9291,-1.9299,-1.9315,-1.9347,-1.9371,-1.9402,-1.9433,-1.9449,-1.9474,-1.95,-1.9541,-1.9536,-1.9554,-1.9561,-1.9581,-1.9613,-1.9573,-1.9574,-1.9579,-1.9657,-1.966,-1.9667,-1.9613,-1.9614,-1.9615,-1.9655,0,-1.9291,-1.9348,-1.936,-1.9408,-1.9436,-1.9439,-1.9466,-1.9488,-1.9501,-1.9526,-1.9539,-1.9567,-1.956,-1.957,-1.959,-1.9605,-1.9628,-1.9602,-1.9636,-1.9637,-1.9629,-1.9674,-1.9678,-1.9715,-1.966,-1.9661,-1.9662,0,-1.9348,-1.9375,-1.9426,-1.9453,-1.9465,-1.949,-1.9519,-1.9543,-1.9567,-1.9574,-1.9594,-1.9598,-1.963,-1.9615,-1.9657,-1.9639,-1.9653,-1.9663,-1.9664,-1.9668,-1.9651,-1.9678,-1.9727,-1.9732,-1.967,-1.967,-1.9669,0,-1.9374,-1.9422,-1.9459,-1.9472,-1.9505,-1.9522,-1.9536,-1.9559,-1.9577,-1.9602,-1.9613,-1.9641,-1.9656,-1.9677,-1.9688,-1.9677,-1.9729,-1.9716,-1.9736,-1.9735,-1.9747,-1.9746,-1.9798,-1.9757,-1.9757,-1.9756,-1.9756,0,-1.942,-1.9451,-1.9471,-1.9494,-1.9528,-1.954,-1.9573,-1.9587,-1.9608,-1.9632,-1.9636,-1.9658,-1.9672,-1.9696,-1.9705,-1.9738,-1.9745,-1.9751,-1.9753,-1.9751,-1.975,-1.9761,-1.9758,-1.9758,-1.9758,-1.9757,-1.9757,0,-1.9455,-1.9469,-1.951,-1.9537,-1.9544,-1.9568,-1.9591,-1.9613,-1.9625,-1.9655,-1.9663,-1.9682,-1.971,-1.9723,-1.9759,-1.9764,-1.9802,-1.9802,-1.9794,-1.9795,-1.9813,-1.9811,-1.9874,-1.9882,-1.9835,-1.9836,-1.9836,0,-1.9483,-1.9507,-1.9536,-1.9553,-1.9568,-1.9595,-1.9613,-1.9624,-1.9643,-1.9671,-1.9689,-1.9717,-1.9741,-1.9786,-1.9802,-1.9829,-1.9829,-1.9849,-1.9833,-1.983,-1.9829,-1.9827,-1.9829,-1.9852,-1.9853,-1.9853,-1.9853,0,-1.953,-1.9536,-1.9562,-1.959,-1.9611,-1.9634,-1.9656,-1.9669,-1.9684,-1.9704,-1.9733,-1.9752,-1.9787,-1.9815,-1.9843,-1.9856,-1.9857,-1.9858,-1.9864,-1.9862,-1.9856,-1.9859,-1.9801,-1.9857,-1.9857,-1.9856,-1.9856,-1.9856,-1.9562,-1.9583,-1.9607,-1.9635,-1.9653,-1.9673,-1.9694,-1.9708,-1.9733,-1.9763,-1.9768,-1.9799,-1.9821,-1.9858,-1.9872,-1.9896,-1.9891,-1.99,-1.9902,-1.9904,-1.9904,-1.9852,-1.9901,-1.9901,-1.9901,-1.9901,-1.9901,0,-1.9609,-1.9625,-1.965,-1.9681,-1.9703,-1.9702,-1.9726,-1.9744,-1.9771,-1.9792,-1.9815,-1.9847,-1.9874,-1.9892,-1.9919,-1.9934,-1.9935,-1.994,-1.9939,-1.9942,-1.9908,-1.99,-1.9939,-1.9939,-1.9939,-1.9939,-1.9939,-1.9939,-1.9637,-1.9672,-1.968,-1.9723,-1.9738,-1.9769,-1.9782,-1.98,-1.9816,-1.9853,-1.9875,-1.9887,-1.9906,-1.9934,-1.9958,-1.9962,-1.9971,-1.9977,-1.9981,-1.9949,-1.9945,-1.9941,-1.9933,-1.9979,-1.9979,-2.0014,-2.0014,-2.0014]}]]